Tracking 35274 objects as of 12-Sep-2026
HD Live streaming from Space Station
objects crossing your sky now

STARLINK-30315

Track STARLINK-30315 now!
10-day predictions
STARLINK-30315 is classified as:


NORAD ID: 57708
Int'l Code: 2023-129L
Launch date: August 27, 2023
Source: United States (US)
Launch site: AIR FORCE EASTERN TEST RANGE (AFETR)
Your satellite tracking list
Your tracking list is empty




NASA's NSSDC Master Catalog

Two Line Element Set (TLE):
1 57708U 23129L   26254.12825003  .00001618  00000-0  68327-4 0  9990
2 57708  43.0017 150.5905 0001259 271.2630  88.8077 15.27571967169045
Source of the keplerian elements: AFSPC